Location: ??
(35.5052°N, 139.7262°E)
Time: 18:25:08
(UTC+00:00)

COSMOS 2406 - Pass Details

Date: 20 June 2021
Orbit: 843 x 863 km, 71.0° (Epoch: 29 July)

Event Time Altitude Azimuth Distance (km) Brightness Sun altitude
Exits shadow 18:44:47 - 229° (SW) 2,511 5.0 -7.9°
Reaches altitude 10° 18:44:56 10° 230° (SW) 2,456 4.9 -7.8°
Maximum altitude 18:50:08 38° 297° (WNW) 1,270 3.9 -7.0°
Drops below altitude 10° 18:55:23 10° 5° (N) 2,469 6.2 -6.1°
Sets 18:58:01 0° 13° (NNE) 3,409 7.2 -5.7°
